Home   Weather   Basse-Terre   Past weeks

Flag for Guadeloupe Past Weather in Basse-Terre, Guadeloupe — Yesterday and Last 2 Weeks

Now
73 °F

Light rain. Mostly cloudy.


Feels Like: 70 °F
Forecast: 74 / 78 °F
Wind: 7 mph from Southeast

Location: Le Raizet - Guadeloupe

Current Time: Apr 23, 2017 at 4:14:51 am

Latest Report: Apr 23, 2017 at 3:00 am


Visibility: 4 mi

Pressure: 29.95 "Hg

Humidity: 94%

Dew Point: 72 °F

Location of Basse-TerreLocation

Past Weather in Basse-Terre — Graph

°F

Basse-Terre Temperature Yesterday

Maximum temperature yesterday: 79 °F (at 8:30 am)
Minimum temperature yesterday: 72 °F (at 12:00 am)
Average temperature yesterday: 75 °F

High & Low Weather Summary for the Past Weeks

 TemperatureHumidityPressure
High86 °F (Apr 8, 1:00 pm)100% (Apr 8, 3:30 am)30.04 "Hg (Apr 8, 3:30 am)
Low68 °F (Apr 20, 2:00 am)40% (Apr 10, 1:30 pm)29.86 "Hg (Apr 12, 3:00 pm)
Average77 °F80%29.95 "Hg
* Reported Apr 8 3:00 am — Apr 23 3:00 am, Basse-Terre, Weather by CustomWeather, © 2017

Note: Actual official high and low records may vary slightly from our data, if they occured in-between our weather recording intervals... More about our weather records

Advertising

Basse-Terre Weather History for the Previous 24 Hours

Scroll right to see more
 ConditionsComfort  
Time TempWeatherWind HumidityBarometerVisibility
3:00 am
Sun, Apr 23
73 °FLight rain. Mostly cloudy.7 mph94%29.95 "Hg4 mi
2:30 am73 °FLight rain. Fog.10 mph94%29.95 "Hg2 mi
2:00 am73 °FFog.7 mph100%29.95 "Hg2 mi
1:30 am73 °FLight rain. Fog.5 mph94%29.95 "Hg2 mi
1:00 am73 °FMostly cloudy.8 mph94%29.95 "Hg6 mi
12:30 am75 °FLight rain. Mostly cloudy.12 mph89%29.98 "HgN/A
12:00 am75 °FLight rain. Fog.7 mph94%29.98 "Hg3 mi
11:30 pm
Sat, Apr 22
75 °FMostly cloudy.5 mph89%29.98 "HgN/A
11:00 pm75 °FOvercast.6 mph89%30.01 "HgN/A
10:30 pm75 °FPassing clouds.5 mph83%30.01 "HgN/A
10:00 pm75 °FPassing clouds.6 mph83%30.01 "HgN/A
9:30 pm75 °FPassing clouds.3 mph83%30.01 "HgN/A
9:00 pm77 °FPassing clouds.3 mph79%29.98 "HgN/A
8:30 pm77 °FPassing clouds.6 mph79%29.98 "HgN/A
8:00 pm77 °FOvercast.7 mph79%29.98 "HgN/A
7:30 pm77 °FOvercast.5 mph83%29.98 "HgN/A
7:00 pm75 °FMostly cloudy.3 mph89%29.98 "HgN/A
6:30 pm75 °FMostly cloudy.3 mph89%29.95 "HgN/A
6:00 pm75 °FMostly cloudy.6 mph89%29.95 "HgN/A
5:30 pm75 °FMore clouds than sun.9 mph89%29.95 "HgN/A
5:00 pm75 °FOvercast.2 mph94%29.95 "HgN/A
4:30 pm75 °FMostly cloudy.2 mph89%29.95 "HgN/A
4:00 pm75 °FLight rain. Overcast.14 mph89%29.95 "HgN/A
3:30 pm79 °FOvercast.6 mph74%29.95 "HgN/A
2:30 pm79 °FCloudy.12 mph79%29.95 "HgN/A
2:00 pm79 °FOvercast.8 mph79%29.95 "HgN/A
1:30 pm79 °FBroken clouds.12 mph79%29.98 "HgN/A
1:00 pm79 °FMore clouds than sun.10 mph79%29.98 "HgN/A
12:30 pm79 °FBroken clouds.7 mph79%29.98 "HgN/A
12:00 pm77 °FMostly cloudy.5 mph83%30.01 "HgN/A
11:30 am75 °FLight rain. Mostly cloudy.6 mph89%30.01 "Hg4 mi
11:00 am77 °FCloudy.2 mph83%30.01 "HgN/A
10:30 am77 °FBroken clouds.5 mph83%30.01 "HgN/A
10:00 am75 °FLight rain. Broken clouds.10 mph89%30.01 "HgN/A
9:30 am75 °FLight rain. Fog.9 mph89%30.01 "Hg3 mi
9:00 am79 °FMostly cloudy.7 mph74%30.01 "HgN/A
8:30 am79 °FOvercast.2 mph74%30.01 "HgN/A
8:00 am77 °FOvercast.1 mph83%30.01 "HgN/A
7:30 am75 °FMostly cloudy.3 mph89%29.98 "HgN/A
7:00 am75 °FPartly sunny.2 mph89%29.98 "HgN/A
6:30 am73 °FOvercast.1 mph94%29.98 "HgN/A
6:00 am73 °FOvercast.2 mph94%29.98 "HgN/A
5:30 am73 °FPassing clouds.3 mph89%29.95 "HgN/A
5:00 am73 °FMostly cloudy.3 mph94%29.95 "HgN/A
4:30 am73 °FMostly cloudy.7 mph94%29.92 "HgN/A
4:00 am72 °FOvercast.3 mph94%29.92 "HgN/A
Weather by CustomWeather, © 2017

See weather overviewHow to use our weather pages